145  
ASUS41 KPHI 060413  
RWRPHI  
 
REGIONAL WEATHER ROUNDUP  
NATIONAL WEATHER SERVICE MOUNT HOLLY NJ  
1200 AM EDT MON JUL 06 2020  
 
NOTE: "FAIR" INDICATES FEW OR NO CLOUDS BELOW 12,000 FEET WITH NO  
SIGNIFICANT WEATHER AND/OR S TO VISIBILITY
.  
 
* = STATION DOES NOT REPORT PRECIPITATION (E.G. RAIN, SNOW, ETC.)  
OR FOG.
 
 
NJZ015>026-060500-  
SOUTHERN NEW JERSEY  
 
CITY SKY/WX TMP DP RH WIND PRES REMARKS
 
POMONA PTCLDY 77 70 79 SW3 29.99R  
WILDWOOD* PTCLDY 77 66 68 SW8 30.01R  
MILLVILLE PTCLDY 77 68 73 SW3 30.00R  
WRIGHTSTOWN CLEAR 74 72 91 SW7 29.97R  
MOUNT HOLLY CLEAR 77 72 84 CALM 29.98R  
TRENTON CLEAR 75 64 68 CALM 29.97R  
 

 
NJZ001>014-060500-  
NORTHERN NEW JERSEY  
 
CITY SKY/WX TMP DP RH WIND PRES REMARKS
 
SUSSEX CLEAR 68 65 90 CALM 29.98S  
ANDOVER* N/A 67 64 90 CALM 29.99S  
MORRISTOWN CLEAR 66 63 88 CALM 29.96S  
NEWARK MOCLDY 82 68 62 S6 29.95R  
TETERBORO CLEAR 80 67 64 CALM 29.93S  
CALDWELL CLEAR 77 63 61 CALM 29.96S  
SOMERVILLE CLEAR 67 65 93 CALM 29.95R  
ALLAIRE* CLEAR 76 76 100 SW5 29.98R  
TOMS RIVER* CLEAR 74 70 87 SW5 29.98R  
 

 
PAZ043-044-047-054-055-060>062-066>071-060500-  
EASTERN PENNSYLVANIA  
 
CITY SKY/WX TMP DP RH WIND PRES REMARKS
 
PHILADELPHIA PTCLDY 81 73 76 SW6 29.98R  
NORTH PHILA CLEAR 83 71 67 W7 29.99R  
BLUE BELL* CLEAR 74 69 82 SW3 30.00R  
DOYLESTOWN CLEAR 78 63 59 S3 29.98R  
QUAKERTOWN* CLEAR 68 66 94 CALM 30.00R  
PERKASIE* FAIR 66 64 94 S5 30.01R  
POTTSTOWN CLEAR 75 65 70 CALM 30.01R  
LANCASTER CLEAR 81 68 64 CALM 29.99R  
COATESVILLE CLEAR 77 68 73 W5 30.02S  
WEST CHESTER FAIR 77 70 78 SW3 30.00S  
READING CLEAR 76 66 71 CALM 29.98R  
ALLENTOWN CLEAR 71 62 73 W3 29.98R  
QN CITY/ALNTWN FAIR 72 61 68 CALM 30.00R  
MOUNT POCONO CLEAR 64 59 83 N3 30.05F  
HAZLETON CLEAR 61 59 94 CALM 30.07S  
LEHIGHTON FAIR 63 63 100 CALM 30.01R  
WILKES BARRE CLEAR 72 60 66 E7 30.00S  
 

 
DEZALL-MDZ008-012-015-019-020-060500-  
DELAWARE AND EASTERN MARYLAND  
 
CITY SKY/WX TMP DP RH WIND PRES REMARKS
 
WILMINGTON CLEAR 79 72 79 SW3 29.99R  
DOVER CLEAR 77 69 74 S9 29.99R  
CHESWOLD CLEAR 77 70 78 SW5 29.99S  
GEORGETOWN PTCLDY 75 67 76 S7 30.01R  
EASTON CLEAR 78 73 85 S5 30.04R  
STEVENSVILLE CLEAR 81 75 83 CALM 30.00R  
ABERDEEN CLEAR 73 73 99 W3 29.98R  
PATUXENT PTCLDY 77 72 84 SE3 30.00  
OCEAN CITY PTCLDY 78 69 73 SW8 30.02R  
WALLOPS ISLAND MOCLDY 76 70 82 S8 30.03R  
CAMBRIDGE CLEAR 77 72 83 S5 30.01R  
SALISBURY PTCLDY 74 67 78 S6 30.01S  
 

 
PAZ001-021-NYZ056-072-MDZ011-DCZ001-060500-  
OTHER NEARBY LOCATIONS  
 
CITY SKY/WX TMP DP RH WIND PRES REMARKS
 
HARRISBURG MOCLDY 82 68 62 CALM 29.97S  
STATE COLLEGE PTCLDY 72 64 76 CALM 30.02S  
WILLIAMSPORT CLEAR 70 62 76 N5 29.98S  
BINGHAMTON CLEAR 73 57 57 CALM 30.04S  
NEW YORK CITY CLEAR 80 69 69 CALM 29.97S  
BALTIMORE PTCLDY 80 72 76 SW5 29.99R  
WASHINGTON DC PTCLDY 81 72 74 S7 30.00R  
 

 
 
 
CLICK HERE TO GO TO PREVIOUS BULLETINS.

The Nexlab PA Page
The Nexlab NJ Page
The Nexlab DE Page
The Nexlab MD Page Main Text Page